Orbital Elements at Epoch 2459200.5 (2020-Dec-17.0) TDB
Reference: JPL 18 (heliocentric ecliptic J2000)
Element | Value | Uncertainty (1-sigma) | Units |
e | .05896042903224846 | 3.9954e-08 | |
a | 3.117160112448081 | 2.7395e-08 | au |
q | 2.93337101485593 | 1.3789e-07 | au |
i | 22.86339473744605 | 6.2719e-06 | deg |
node | 46.27951337695299 | 1.179e-05 | deg |
peri | 65.56393567183208 | 6.0065e-05 | deg |
M | 281.5510709493292 | 5.9335e-05 | deg |
tp | 2459638.547908152998 (2022-Feb-28.04790815) | 0.00033304 | TDB |
period | 2010.189926661984 5.50 | 2.65e-05 7.255e-08 | d yr |
n | .179087555471834 | 2.3609e-09 | deg/d |
Q | 3.300949210040232 | 2.901e-08 | au |
|
| | Orbit Determination Parameters
Additional Information
|